Terug naar catalogus

FENGYUN 1C DEB

ActiefSSO
NORAD 31691·DEBRIS·🇨🇳 China

Gelanceerd May 10, 1999 vanaf Taiyuan Satellite Launch Center

Loading…

Volgende Passages (komende 24 uur)

TLE

VerouderendSource: Space-Track

Epoch: Sep 8, 2026, 02:08 UTC

1 31691U 99025CCZ 26251.08928168  .00003273  00000-0  12997-2 0  9998
2 31691  98.8773 346.6876 0060143 177.7770 182.3690 14.28464707679547

Volg FENGYUN 1C DEB in realtime met AllMySat

Download on the App Store